Presure
197 200 195 186 189 188 190 171 184 186 180 192 196 188 180 190 205 206 200 172 183 200 211 224 205 283 281 213 202 212 209 195 208 184 190 191 174 196 178 192 184 180 181 183
199 197 192 188 176 192 167 176 186 186 175 193 184 198 183 183 190 189 186 195 177 189 208 210 205 236 262 227 198 194 211 202 175 195 200 192 191 174 192 180 181 179 185 187
203 197 194 189 188 180 183 182 183 182 181 185 184 192 197 174 180 197 193 198 182 171 191 204 217 221 270 259 214 204 196 211 195 197 203 189 189 192 189 182 185 178 174 168
195 198 192 184 193 174 175 187 179 171 183 183 176 183 191 193 178 166 194 201 205 175 188 198 211 199 214 229 281 274 198 195 206 191 205 184 188 187 191 190 192 186 180 188
190 192 191 183 188 180 183 187 191 186 170 183 178 188 177 191 189 180 180 185 205 199 162 187 199 213 215 220 240 281 243 200 202 205 195 197 188 200 184 173 189 172 185 185
207 200 188 191 186 179 184 180 190 179 169 169 184 189 179 189 183 187 184 194 195 201 209 178 189 200 208 201 228 225 285 205 195 208 203 191 195 188 198 193 185 178 183 181
203 198 186 198 178 180 178 172 180 177 175 184 185 189 182 181 183 182 180 164 180 186 195 195 179 200 201 204 205 227 242 263 204 204 196 201 186 192 196 184 187 192 181 187
206 200 197 198 187 187 175 181 182 188 173 185 172 181 180 173 180 196 179 161 195 177 197 202 163 184 180 201 183 206 217 238 239 267 194 190 191 186 197 182 179 186 198 190
201 199 196 196 199 192 199 194 181 196 189 185 175 182 174 177 179 179 177 180 176 192 198 206 210 172 199 195 197 200 205 217 225 229 241 259 268 203 191 200 213 177 187 188
201 200 198 199 190 199 189 191 186 184 186 183 177 183 179 174 181 175 171 191 185 194 189 194 200 166 172 201 184 195 194 191 218 215 236 223 256 276 258 248 216 203 212 213
211 198 191 200 198 196 194 200 195 188 182 186 178 177 177 186 176 194 189 170 188 175 178 186 193 204 195 178 198 193 194 194 197 198 216 213 236 212 255 273 259 237 234 233
213 205 200 200 193 189 188 187 189 187 182 188 191 191 189 188 178 189 188 174 187 192 180 207 197 195 209 227 169 190 192 202 196 177 200 213 204 233 229 205 220 272 263 247
213 214 211 208 145 200 200 199 204 201 190 191 192 192 190 193 187 182 179 178 193 190 181 194 195 193 205 203 224 207 195 196 192 198 185 199 194 233 191 213 230 213 225 268
202 203 204 204 202 204 203 199 197 200 201 195 190 199 195 188 179 177 187 176 196 191 185 186 202 202 189 200 209 227 176 182 193 199 182 207 203 164 220 234 213 213 227 221
207 204 206 205 206 205 205 201 195 194 193 195 194 194 198 191 183 186 196 197 195 198 190 190 195 193 203 189 201 221 224 185 204 196 196 196 191 209 199 177 197 217 209 217
218 218 214 195 191 196 211 201 198 202 202 195 199 196 194 208 210 206 202 197 190 156 172 189 205 196 198 203 188 209 236 223 201 204 180 184 189 198 190 205 151 153 205 177
216 210 217 215 206 204 200 195 199 202 207 205 203 203 224 216 204 201 198 193 188 165 190 198 204 199 197 197 185 193 219 229 222 192 180 203 190 185 204 192 194 200 192 202
222 221 217 216 219 216 208 205 201 203 206 226 226 220 213 202 198 197 196 186 188 192 199 196 200 194 199 193 198 204 204 216 214 204 214 202 200 199 205 178 203 190 195 196
237 231 227 218 216 216 216 223 227 228 210 212 209 207 208 209 208 203 203 197 191 194 200 199 188 194 191 192 203 199 215 215 214 209 196 206 206 191 194 200 184 188 198 200
231 233 227 222 216 220 222 222 222 220 222 213 209 214 216 212 215 214 211 208 214 209 194 191 196 203 199 200 219 217 219 210 208 216 203 201 201 203 171 195 193 196 202 203
246 242 239 240 242 101 210 225 228 221 218 232 232 228 233 236 221 229 224 224 222 220 220 219 214 210 168 215 214 211 212 208 205 208 214 205 211 207 207 183 194 194 194 202
240 232 230 225 231 238 238 237 233 235 231 228 233 239 233 233 237 228 218 220 225 222 217 219 218 217 213 213 212 214 214 207 206 218 204 209 210 211 205 207 196 191 194 198
245 235 236 232 227 229 234 217 224 226 227 224 226 225 225 229 228 235 233 229 183 230 228 225 226 218 222 220 149 223 223 227 218 227 216 218 213 210 207 206 203 206 199 203
276 202 245 242 224 236 235 233 231 232 215 236 238 242 244 245 248 253 258 261 261 155 229 243 239 220 246 249 240 234 233 231 228 229 222 219 218 215 207 203 208 212 210 197
251 271 275 257 250 249 247 248 251 128 253 260 260 263 268 273 277 287 291 293 256 290 298 292 286 271 267 261 260 253 246 234 233 228 222 224 225 217 220 215 204 210 212 213
244 242 246 247 251 253 258 259 262 267 264 256 258 261 187 264 271 314 274 336 338 342 254 327 335 340 322 267 267 277 256 246 237 237 234 228 226 226 216 213 211 214 211 213
Wind_Speed
54 48 47 58 47 40 38 47 45 31 33 28 27 32 35 24 21 19 19 30 20 19 17 19 11 7 12 26 28 32 36 36 44 35 40 48 35 58 39 52 49 47 50 53
50 48 62 54 47 42 51 49 44 28 37 31 36 24 32 29 24 25 26 20 24 21 17 14 12 11 5 26 31 34 42 42 27 44 51 52 54 37 57 42 48 45 56 59
53 61 60 52 45 43 47 49 44 27 31 35 36 31 22 38 30 20 25 23 25 26 19 14 13 13 9 12 34 38 40 47 41 48 55 51 52 59 58 51 57 49 40 34
52 61 57 51 48 50 51 51 45 31 30 39 43 37 25 29 33 28 25 23 21 26 23 17 14 11 9 8 8 23 43 43 56 44 57 45 51 56 63 61 64 61 52 63
57 63 64 56 56 52 55 48 40 32 41 41 43 36 36 30 29 32 29 28 22 21 25 21 15 15 14 11 5 12 38 44 49 61 55 53 47 67 55 35 66 37 62 65
63 66 62 62 57 51 51 45 41 39 47 49 44 27 47 31 36 32 28 23 24 22 20 25 20 15 14 9 12 9 13 50 44 58 65 53 56 50 64 71 64 52 64 62
63 67 62 66 58 55 52 51 49 46 45 51 38 24 46 46 42 35 32 26 25 23 23 22 23 19 14 14 9 12 7 10 52 59 54 68 51 56 69 55 62 74 57 72
63 64 66 66 68 67 57 61 55 51 45 46 39 31 49 52 51 39 34 26 27 30 26 23 28 23 23 14 20 11 12 8 13 13 58 52 61 53 71 55 50 65 81 75
63 64 65 65 67 66 65 60 58 54 45 39 42 39 52 56 55 46 38 39 37 31 27 25 24 29 20 20 15 16 15 14 12 17 16 19 34 65 66 76 77 48 69 74
67 66 68 68 64 64 59 57 55 48 44 47 51 50 50 59 57 51 43 40 42 34 31 30 27 33 29 23 24 19 20 21 16 17 15 23 22 29 40 48 67 75 71 71
74 68 64 65 64 64 60 58 55 54 50 50 50 53 57 56 60 53 48 47 45 45 35 33 33 28 28 33 27 28 25 23 23 22 20 21 18 29 32 38 44 46 47 47
74 73 71 71 67 64 61 59 59 56 52 53 54 56 57 60 64 59 54 53 51 44 46 38 37 34 33 29 31 31 30 23 27 31 23 22 27 19 24 34 31 41 45 52
72 74 75 72 47 68 67 67 66 65 60 57 56 56 55 59 64 63 60 56 55 52 49 43 42 39 35 35 34 31 33 31 32 29 32 28 29 18 35 29 22 33 35 44
71 70 71 70 69 67 67 64 63 62 62 59 56 58 58 61 67 66 65 60 61 54 51 49 50 43 44 38 38 38 38 38 36 32 34 27 30 40 24 20 30 32 24 30
78 75 76 73 72 71 70 68 63 63 63 63 63 61 61 62 67 69 70 67 64 55 54 54 54 49 48 44 43 43 42 39 35 39 39 37 37 31 36 37 34 31 37 30
81 82 84 66 64 65 74 68 65 69 70 66 68 63 64 72 66 66 69 68 65 40 54 57 61 57 54 51 50 49 44 45 42 38 47 46 44 39 42 36 41 39 34 43
81 75 82 83 78 76 70 70 73 73 76 75 72 71 68 64 65 65 68 71 68 49 65 64 62 61 58 57 48 55 54 47 43 45 46 45 50 47 41 47 45 43 45 42
82 87 83 80 83 81 81 81 75 77 80 81 75 73 69 67 69 71 73 72 73 71 72 70 69 60 63 61 59 60 55 50 50 47 46 49 49 47 46 53 50 53 51 51
85 86 85 82 80 80 83 86 88 83 80 77 73 74 73 73 75 78 77 74 74 77 78 76 69 66 65 64 67 63 65 58 56 55 52 50 50 54 52 53 60 56 55 54
83 83 81 80 77 80 84 88 89 85 87 78 77 79 79 77 80 82 82 80 83 80 77 78 80 77 72 71 74 71 65 64 63 60 61 59 58 55 53 56 61 63 63 62
87 88 86 83 83 26 78 88 91 85 84 90 90 89 88 84 80 82 82 81 80 80 82 83 83 84 52 77 74 69 70 68 70 68 66 66 63 62 60 63 63 68 70 69
81 78 76 76 75 81 83 83 84 85 84 84 83 84 85 85 85 83 81 83 83 81 82 84 84 84 82 79 80 78 76 74 74 75 72 71 69 66 68 67 68 72 75 73
82 79 83 78 78 79 82 73 83 85 86 85 84 84 83 84 82 86 86 84 62 86 86 87 91 87 87 86 45 85 83 81 80 81 77 77 74 73 71 72 78 77 78 79
84 61 87 86 77 84 83 84 87 89 78 92 93 92 92 91 92 94 95 96 96 38 84 95 99 88 99 97 93 92 88 84 82 82 82 82 79 77 77 78 83 81 83 81
72 75 83 88 91 90 89 90 94 27 95 99 100 101 100 100 98 98 95 91 75 84 81 83 84 90 93 95 92 91 90 86 84 83 83 85 85 83 83 83 84 85 86 87
71 72 74 78 80 82 84 83 86 87 87 86 89 91 52 88 86 63 47 54 49 37 35 48 48 54 58 84 83 83 85 89 89 88 87 87 87 88 86 87 88 91 89 91
Wind_Direction
220 219 220 233 234 241 238 250 250 243 255 260 265 255 262 264 287 297 290 269 279 302 324 357 319 306 228 227 230 216 224 229 217 226 225 223 237 221 243 232 242 249 252 256
215 212 225 228 233 228 247 249 247 242 260 263 258 266 259 262 270 271 268 280 271 291 314 335 311 333 264 206 235 235 222 235 244 225 217 219 226 245 230 250 251 251 253 257
207 216 225 227 227 232 237 245 247 241 251 258 262 271 263 262 265 274 278 292 266 268 291 320 340 345 321 246 223 229 235 226 239 231 221 232 237 234 238 248 247 259 261 257
216 217 225 232 219 234 239 238 245 242 249 254 259 262 265 263 263 265 278 297 296 268 285 301 330 279 325 284 235 209 237 236 231 243 232 237 241 245 242 248 248 256 265 261
214 219 226 228 222 230 236 240 240 241 246 254 255 268 262 260 260 265 271 276 305 288 267 286 301 341 342 320 293 230 216 237 233 232 242 239 237 235 243 258 248 267 261 263
211 216 225 222 228 234 239 248 242 236 239 250 253 259 269 255 259 261 262 280 283 295 309 274 291 296 324 289 324 270 242 226 242 233 234 246 246 245 239 242 253 262 261 265
212 218 226 222 228 230 234 240 236 233 235 246 246 238 259 265 263 256 261 254 272 283 281 278 275 286 294 303 295 320 283 240 228 236 244 240 255 252 248 256 254 251 265 263
214 219 223 224 223 223 233 232 237 236 242 244 246 235 248 262 260 266 259 251 277 271 288 288 266 275 270 288 245 307 294 283 239 263 238 249 252 259 250 264 268 267 260 264
216 217 222 226 229 230 228 230 237 237 236 240 239 239 247 253 255 260 264 267 269 270 283 298 299 263 266 265 274 291 300 300 274 253 246 260 248 247 251 254 253 264 263 264
219 221 223 225 231 233 232 232 238 239 238 236 235 244 242 253 257 258 261 266 266 271 268 277 280 260 262 262 265 267 269 260 306 273 275 245 257 253 249 248 254 259 259 257
223 222 226 228 231 235 235 236 235 234 233 239 234 240 245 254 253 265 259 263 263 265 268 265 270 281 281 266 258 261 264 263 265 270 278 270 267 253 255 251 251 253 253 254
226 228 227 229 229 233 237 237 237 236 237 240 243 247 252 254 252 259 256 261 264 262 263 282 266 267 291 288 262 264 262 256 262 251 267 282 266 270 262 262 259 261 261 260
226 228 230 229 237 234 238 241 242 240 241 242 243 248 250 254 253 255 257 260 265 262 262 270 267 263 279 273 285 258 260 258 262 265 259 266 257 284 263 267 274 264 267 264
227 228 231 233 234 237 238 237 239 240 241 242 242 249 247 247 247 257 259 262 260 262 266 266 276 273 264 271 281 278 268 269 263 265 265 271 268 264 286 289 271 270 277 274
226 228 233 234 236 238 239 240 240 241 242 243 243 243 246 246 248 255 258 258 262 258 263 266 270 266 273 264 273 287 268 267 259 264 270 269 271 278 273 274 273 280 275 280
226 226 229 233 236 236 239 242 244 245 246 243 246 243 242 250 241 245 250 256 258 250 264 262 272 270 271 274 266 278 277 265 260 262 275 276 269 264 271 276 275 274 278 277
227 230 230 231 233 237 239 242 244 246 249 248 247 248 248 241 239 241 248 253 256 250 265 265 265 265 267 270 267 271 287 270 262 260 272 269 267 273 264 266 272 271 271 274
227 229 232 234 235 236 238 241 244 247 250 249 247 245 245 242 242 243 244 251 257 260 261 260 261 262 267 268 272 273 276 274 269 264 264 265 268 270 273 276 267 271 270 271
229 230 232 234 236 238 241 243 245 244 245 245 244 244 244 244 245 247 247 247 251 257 260 261 263 261 262 267 268 269 279 273 268 265 264 264 267 268 270 275 274 276 276 274
231 233 233 234 234 236 239 241 244 246 249 249 248 249 249 247 249 249 250 251 254 254 256 263 265 264 263 265 270 272 272 270 270 268 266 265 265 266 281 270 273 277 281 281
228 231 235 237 238 223 239 244 246 248 250 252 251 252 253 253 250 251 252 253 253 254 257 258 259 262 259 265 265 265 267 264 263 266 265 266 265 265 265 275 271 274 276 278
228 230 233 234 235 237 239 243 245 248 246 248 251 251 250 251 250 249 250 252 254 253 255 258 259 260 261 262 263 263 262 261 263 267 265 265 264 265 266 267 269 273 277 276
230 232 235 237 238 240 242 242 246 248 251 252 252 253 254 253 253 252 253 254 254 258 257 258 260 260 259 259 253 261 262 263 262 261 262 263 262 263 265 266 268 268 273 274
231 235 237 239 241 243 244 246 247 249 251 254 257 257 258 259 260 260 260 260 260 250 256 257 258 258 260 259 258 260 260 259 259 260 260 261 261 262 263 266 267 269 269 280
230 234 237 239 243 245 247 248 251 250 255 257 259 261 261 262 263 264 265 265 264 265 265 261 258 256 256 256 257 255 255 258 258 259 260 262 262 261 261 262 270 270 271 272
232 234 236 238 241 244 248 250 252 254 255 256 258 259 255 262 263 265 264 265 266 261 269 268 253 244 249 255 255 256 255 257 258 257 257 259 261 262 265 267 269 269 272 273